TimeCST,TemperatureF,Dew PointF,Humidity,Sea Level PressureIn,VisibilityMPH,Wind Direction,Wind SpeedMPH,Gust SpeedMPH,PrecipitationIn,Events,Conditions,WindDirDegrees,DateUTC
12:54 AM,37.0,32.0,82,30.32,8.0,South,8.1,-,N/A,,Clear,170,2012-11-17 06:54:00
1:54 AM,34.0,30.0,85,30.30,8.0,SSE,8.1,-,N/A,,Clear,160,2012-11-17 07:54:00
2:54 AM,36.0,32.0,86,30.29,8.0,SSE,10.4,-,N/A,,Clear,160,2012-11-17 08:54:00
3:54 AM,35.1,30.9,85,30.29,9.0,SSE,8.1,-,N/A,,Clear,160,2012-11-17 09:54:00
4:54 AM,37.0,30.9,79,30.29,9.0,SSE,6.9,-,N/A,,Clear,160,2012-11-17 10:54:00
5:54 AM,36.0,30.9,82,30.29,9.0,SSE,8.1,-,N/A,,Clear,160,2012-11-17 11:54:00
6:54 AM,34.0,30.0,85,30.29,8.0,South,6.9,-,N/A,,Clear,170,2012-11-17 12:54:00
7:54 AM,36.0,30.0,79,30.29,7.0,South,5.8,-,N/A,,Clear,170,2012-11-17 13:54:00
8:54 AM,45.0,34.0,65,30.28,8.0,South,11.5,-,N/A,,Clear,170,2012-11-17 14:54:00
9:54 AM,52.0,33.1,49,30.27,9.0,South,17.3,25.3,N/A,,Clear,180,2012-11-17 15:54:00
10:54 AM,57.0,32.0,39,30.25,9.0,South,19.6,29.9,N/A,,Partly Cloudy,190,2012-11-17 16:54:00
11:54 AM,60.1,33.1,36,30.19,9.0,South,25.3,31.1,N/A,,Clear,190,2012-11-17 17:54:00
12:54 PM,61.0,34.0,36,30.18,10.0,South,20.7,32.2,N/A,,Clear,180,2012-11-17 18:54:00
1:54 PM,64.0,35.1,34,30.15,10.0,South,24.2,32.2,N/A,,Mostly Cloudy,190,2012-11-17 19:54:00
2:54 PM,60.1,35.1,39,30.15,10.0,South,20.7,29.9,N/A,,Clear,170,2012-11-17 20:54:00
3:54 PM,62.1,35.1,37,30.14,10.0,South,24.2,33.4,N/A,,Partly Cloudy,180,2012-11-17 21:54:00
4:54 PM,57.9,35.1,42,30.15,10.0,South,15.0,-,N/A,,Clear,170,2012-11-17 22:54:00
5:54 PM,54.0,35.1,49,30.17,10.0,South,12.7,-,N/A,,Clear,170,2012-11-17 23:54:00
6:54 PM,52.0,34.0,50,30.17,10.0,South,13.8,-,N/A,,Clear,170,2012-11-18 00:54:00
7:54 PM,51.1,33.1,50,30.18,10.0,South,16.1,-,N/A,,Clear,170,2012-11-18 01:54:00
8:54 PM,48.9,32.0,52,30.17,10.0,South,16.1,-,N/A,,Clear,170,2012-11-18 02:54:00
9:54 PM,48.0,30.9,52,30.17,10.0,South,12.7,-,N/A,,Clear,170,2012-11-18 03:54:00
10:54 PM,46.9,30.0,52,30.16,10.0,South,15.0,-,N/A,,Clear,170,2012-11-18 04:54:00
11:54 PM,45.0,28.9,53,30.16,10.0,South,13.8,-,N/A,,Clear,170,2012-11-18 05:54:00